DW6241 Weather Reports


time (UTC)temp
F
wind
direction
speed
knots
gust
knots
rain 1hr
in
rain 24hr
in
rain mn
in
humidity
%
barometer
mb
20260503211538 79 250 2.6 2.6 0.00 0.00 0.00 52 1011.5
20260503210052 79 275 4.3 4.3 0.00 0.00 0.00 50 1011.7
20260503204522 78 264 0.9 0.9 0.00 0.00 0.00 53 1011.8
20260503203035 78 326 0.9 0.9 0.00 0.00 0.00 53 1011.9
20260503201525 78 300 3.5 3.5 0.00 0.00 0.00 54 1011.9
20260503200021 77 20 0.0 0.0 0.00 0.00 0.00 53 1012.1
20260503194530 76 139 0.9 0.9 0.00 0.00 0.00 58 1012.4
20260503193020 75 304 1.7 1.7 0.00 0.00 0.00 55 1012.7
20260503191535 74 265 2.6 2.6 0.00 0.00 0.00 54 1012.8
20260503190042 73 321 1.7 1.7 0.00 0.00 0.00 56 1012.9
20260503184532 73 310 0.9 0.9 0.00 0.00 0.00 57 1013.2
20260503183029 73 355 3.5 3.5 0.00 0.00 0.00 59 1013.3
20260503181540 72 279 1.7 1.7 0.00 0.00 0.00 61 1013.4
20260503180054 71 291 0.9 0.9 0.00 0.00 0.00 61 1013.5
20260503174524 70 327 0.9 0.9 0.00 0.00 0.00 64 1013.8
20260503173017 69 292 1.7 1.7 0.00 0.00 0.00 64 1013.9
20260503171531 69 228 1.7 1.7 0.00 0.00 0.00 64 1014.2
20260503081533 49 13 0.0 0.0 0.00 0.00 0.00 89 1014.5
20260503071537 51 13 0.0 0.0 0.00 0.00 0.00 86 1014.4
20260503054528 55 13 0.0 0.0 0.00 0.00 0.00 80 1014.2
20260503053025 56 13 0.0 0.0 0.00 0.00 0.00 79 1014.1
20260503051535 57 13 0.0 0.0 0.00 0.00 0.00 76 1014.0
20260503050030 58 13 0.0 0.0 0.00 0.00 0.00 75 1014.0
20260503044520 59 13 0.0 0.0 0.00 0.00 0.00 73 1013.9
20260503043037 60 13 0.0 0.0 0.00 0.00 0.00 71 1013.7
20260503041526 61 13 0.0 0.0 0.00 0.00 0.00 69 1013.4
20260503040021 63 13 0.0 0.0 0.00 0.00 0.00 66 1013.4
20260503034532 64 11 0.0 0.0 0.00 0.00 0.00 63 1013.1
20260503033022 66 9 0.0 0.0 0.00 0.00 0.00 60 1012.9
20260503031536 68 10 0.9 0.9 0.00 0.00 0.00 57 1012.9
20260503030029 69 314 1.7 1.7 0.00 0.00 0.00 55 1012.7
20260503024526 70 294 0.9 0.9 0.00 0.00 0.00 54 1012.6
20260503023037 70 340 1.7 1.7 0.00 0.00 0.00 53 1012.5
20260503021532 71 318 3.5 3.5 0.00 0.00 0.00 50 1012.4
20260503020021 72 296 3.5 3.5 0.00 0.00 0.00 49 1012.6
20260503014531 73 311 1.7 1.7 0.00 0.00 0.00 48 1012.8
20260503013046 73 304 6.1 6.1 0.00 0.00 0.00 48 1012.9
20260503011535 73 329 2.6 2.6 0.00 0.00 0.00 47 1012.9
20260503010028 74 284 4.3 4.3 0.00 0.00 0.00 46 1012.9
20260503004536 74 323 1.7 1.7 0.00 0.00 0.00 47 1013.0
20260503003026 74 345 4.3 4.3 0.00 0.00 0.00 50 1013.0
20260503001520 74 311 5.2 5.2 0.00 0.00 0.00 52 1013.0
20260503000030 75 288 6.1 6.1 0.00 0.00 0.00 55 1012.9
20260502234524 75 306 1.7 1.7 0.00 0.00 0.00 56 1013.1
20260502233034 74 331 3.5 3.5 0.00 0.00 0.00 56 1013.3
20260502231524 75 321 1.7 1.7 0.00 0.00 0.00 56 1013.5
20260502230039 75 311 7.0 7.0 0.00 0.00 0.00 58 1013.7
20260502224529 74 317 3.5 3.5 0.00 0.00 0.00 57 1013.9
20260502223021 74 304 4.3 4.3 0.00 0.00 0.00 57 1014.0
20260502221532 74 317 2.6 2.6 0.00 0.00 0.00 62 1014.4
20260502220027 73 300 4.3 4.3 0.00 0.00 0.00 64 1014.4
20260502214537 73 257 1.7 1.7 0.00 0.00 0.00 63 1014.5
20260502213046 73 346 1.7 1.7 0.00 0.00 0.00 63 1014.8